• In Belarus
  • List of Countries
  • For 7 days
  • Water Temperature
  • Satellite Maps
  • Weather Map
  • Weather Widgets
  • user-avatar
    Login

    Hourly Weather Kosiv

    Today, 19 September, Wednesday

    Time Temperature Precipitation Wind Pressure Humidity
    00:00 +20°C° 0 mm 2 mps 736 mmHg 72%
    01:00 +21°C° 0 mm 1 mps 736 mmHg 64%
    02:00 +14°C° 0 mm 1 mps 735 mmHg 78%
    03:00 +16°C° 0 mm 1 mps 735 mmHg 74%
    04:00 +18°C° 0 mm 1 mps 735 mmHg 65%
    05:00 +19°C° 0 mm 1 mps 735 mmHg 60%
    06:00 +19°C° 0 mm 1 mps 735 mmHg 57%
    07:00 +19°C° 0 mm 1 mps 735 mmHg 57%
    08:00 +17°C° 0 mm 0 mps 735 mmHg 63%
    09:00 +18°C° 0 mm 0 mps 736 mmHg 77%
    10:00 +19°C° 0 mm 0 mps 736 mmHg 74%
    11:00 +21°C° 0 mm 0 mps 736 mmHg 71%
    12:00 +23°C° 0 mm 1 mps 737 mmHg 69%
    13:00 +24°C° 0 mm 1 mps 737 mmHg 68%
    14:00 +24°C° 0 mm 2 mps 736 mmHg 67%
    15:00 +24°C° 0 mm 1 mps 736 mmHg 68%
    16:00 +24°C° 0 mm 2 mps 736 mmHg 69%
    17:00 +24°C° 0 mm 1 mps 736 mmHg 73%
    18:00 +23°C° 0 mm 1 mps 736 mmHg 78%
    19:00 +20°C° 0 mm 0 mps 736 mmHg 72%
    20:00 +20°C° 0 mm 0 mps 736 mmHg 75%
    21:00 +21°C° 0 mm 1 mps 736 mmHg 75%
    22:00 +21°C° 0 mm 1 mps 736 mmHg 73%
    23:00 +21°C° 0 mm 1 mps 736 mmHg 74%

    Tomorrow, 20 September, Thursday

    Time Temperature Precipitation Wind Pressure Humidity
    00:00 +21°C° 0 mm 1 mps 736 mmHg 78%
    01:00 +21°C° 0 mm 1 mps 736 mmHg 81%
    02:00 +20°C° 0 mm 1 mps 736 mmHg 82%
    03:00 +20°C° 0 mm 1 mps 736 mmHg 84%
    04:00 +19°C° 0 mm 1 mps 735 mmHg 83%
    05:00 +19°C° 0 mm 1 mps 735 mmHg 81%
    06:00 +19°C° 0 mm 1 mps 735 mmHg 80%
    07:00 +19°C° 0 mm 1 mps 736 mmHg 76%
    08:00 +20°C° 0 mm 1 mps 736 mmHg 77%
    09:00 +19°C° 0 mm 0 mps 736 mmHg 87%
    10:00 +20°C° 0 mm 0 mps 736 mmHg 88%
    11:00 +21°C° 0 mm 0 mps 736 mmHg 88%
    12:00 +23°C° 0 mm 1 mps 736 mmHg 87%
    13:00 +24°C° 0 mm 1 mps 736 mmHg 88%
    14:00 +24°C° 0 mm 1 mps 736 mmHg 88%
    15:00 +24°C° 0 mm 2 mps 736 mmHg 87%
    16:00 +24°C° 0 mm 3 mps 735 mmHg 84%
    17:00 +22°C° 0 mm 4 mps 736 mmHg 85%
    18:00 +21°C° 0 mm 2 mps 735 mmHg 88%
    19:00 +20°C° 0 mm 2 mps 735 mmHg 87%
    20:00 +21°C° 0 mm 1 mps 735 mmHg 81%
    21:00 +21°C° 0 mm 1 mps 735 mmHg 84%
    22:00 +20°C° 0 mm 1 mps 735 mmHg 86%
    23:00 +20°C° 0 mm 1 mps 735 mmHg 87%

    Day after tomorrow, 21 September, Friday

    Time Temperature Precipitation Wind Pressure Humidity
    00:00 +20°C° 0 mm 1 mps 735 mmHg 85%
    01:00 +20°C° 0 mm 1 mps 735 mmHg 83%
    02:00 +20°C° 0 mm 1 mps 735 mmHg 81%
    03:00 +20°C° 0 mm 1 mps 734 mmHg 79%
    04:00 +19°C° 0 mm 1 mps 734 mmHg 77%
    05:00 +19°C° 0 mm 1 mps 734 mmHg 76%
    06:00 +19°C° 0 mm 1 mps 734 mmHg 76%
    07:00 +19°C° 0 mm 1 mps 734 mmHg 75%
    08:00 +19°C° 0 mm 1 mps 734 mmHg 82%
    09:00 +18°C° 0 mm 0 mps 734 mmHg 92%
    10:00 +21°C° 0 mm 1 mps 735 mmHg 92%
    11:00 +22°C° 0 mm 1 mps 735 mmHg 94%
    12:00 +23°C° 0 mm 2 mps 735 mmHg 94%
    13:00 +23°C° 0 mm 2 mps 734 mmHg 97%
    14:00 +24°C° 0 mm 2 mps 734 mmHg 96%
    15:00 +24°C° 0 mm 2 mps 734 mmHg 95%
    16:00 +25°C° 0 mm 3 mps 734 mmHg 95%
    17:00 +25°C° 0 mm 2 mps 733 mmHg 88%
    18:00 +24°C° 0 mm 2 mps 733 mmHg 91%
    19:00 +21°C° 0.1 mm 1 mps 733 mmHg 92%
    20:00 +22°C° 0 mm 1 mps 733 mmHg 87%
    21:00 +21°C° 0 mm 2 mps 733 mmHg 81%
    22:00 +20°C° 0 mm 2 mps 733 mmHg 82%
    23:00 +19°C° 0 mm 2 mps 733 mmHg 80%

    22 September, Saturday

    Time Temperature Precipitation Wind Pressure Humidity
    00:00 +19°C° 0 mm 2 mps 733 mmHg 73%
    01:00 +19°C° 0 mm 2 mps 732 mmHg 72%
    02:00 +19°C° 0 mm 2 mps 732 mmHg 75%
    03:00 +18°C° 0 mm 2 mps 732 mmHg 78%
    04:00 +18°C° 0 mm 2 mps 732 mmHg 78%
    05:00 +18°C° 0 mm 2 mps 732 mmHg 78%
    06:00 +19°C° 0 mm 1 mps 732 mmHg 76%
    07:00 +19°C° 0 mm 1 mps 732 mmHg 77%
    08:00 +18°C° 0 mm 2 mps 732 mmHg 82%
    09:00 +21°C° 0 mm 1 mps 732 mmHg 87%
    10:00 +22°C° 0 mm 1 mps 732 mmHg 83%
    11:00 +24°C° 0 mm 1 mps 732 mmHg 77%
    12:00 +24°C° 0 mm 1 mps 733 mmHg 77%
    13:00 +24°C° 0 mm 1 mps 732 mmHg 77%
    14:00 +24°C° 0 mm 1 mps 732 mmHg 75%
    15:00 +25°C° 0 mm 1 mps 732 mmHg 76%
    16:00 +15°C° 0.8 mm 7 mps 732 mmHg 98%
    17:00 +14°C° 0.1 mm 6 mps 732 mmHg 97%
    18:00 +13°C° 0.7 mm 4 mps 732 mmHg 100%
    19:00 +13°C° 0.1 mm 4 mps 732 mmHg 99%
    20:00 +12°C° 0.1 mm 4 mps 733 mmHg 100%
    21:00 +11°C° 2.7 mm 4 mps 733 mmHg 100%
    22:00 +10°C° 0.7 mm 3 mps 733 mmHg 100%
    23:00 +10°C° 0.4 mm 3 mps 733 mmHg 100%

    23 September, Sunday

    Time Temperature Precipitation Wind Pressure Humidity
    00:00 +10°C° 0.7 mm 2 mps 733 mmHg 100%
    01:00 +10°C° 0.4 mm 4 mps 733 mmHg 100%
    02:00 +8°C° 0.1 mm 4 mps 733 mmHg 100%

    24 September, Monday

    Time Temperature Precipitation Wind Pressure Humidity
    Show more